Tracking 27122 objects as of 24-Mar-2023
HD Live streaming from Space Station
objects crossing your sky now

STARLINK-2469

Track STARLINK-2469 now!
10-day predictions
STARLINK-2469 is classified as:


NORAD ID: 48128
Int'l Code: 2021-027AN
Perigee: 554.2 km
Apogee: 554.5 km
Inclination: 53.1 °
Period: 95.6 minutes
Semi major axis: 6925 km
RCS: Unknown
Launch date: April 7, 2021
Source: United States (US)
Launch site: AIR FORCE EASTERN TEST RANGE (AFETR)
Your satellite tracking list
Your tracking list is empty




NASA's NSSDC Master Catalog

Two Line Element Set (TLE):
1 48128U 21027AN  23082.80300084  .00031223  00000-0  21054-2 0  9998
2 48128  53.0523 278.4794 0000217  93.7439 266.3575 15.06405667109935
Source of the keplerian elements: AFSPC